Find Starlink 4439

NORAD ID: 53498 Int'l Des: 2022-099 Owner: SPXS Country: US Constellation: starlink operational
LEOCIRCULARRETROGRADESSO

リアルタイム位置

3D地球を読み込み中...

Starlink 4439について

説明を読み込み中...

次回通過

Passes for default location (London). Set your location on the main map for personalized predictions.

高度履歴

Loading altitude history...

軌道要素

1 53498U 22099AK 26104.88647734 .00000622 00000-0 47310-4 0 9990
2 53498 97.6027 226.8506 0000327 155.7263 204.3979 15.05650136201494
Epoch: Apr 14, 2026 • Age: 7 hours

現在のステータス

高度 563.0 km
速度 7.59 km/s
衛星直下点 82.42°N, 122.49°W
打ち上げ日 Aug 12, 2022
運用期間 3.6 years
タイプ internet

技術仕様

分類 Payload
質量 300.00 kg
乾燥質量 275.00 kg
総質量 300.00 kg
長さ 0.20 m
直径 2.80 m
スパン 9.00 m
形状 Box + pan
製造者 SPXS
バスタイプ Starlink
フェーズステータス In Orbit
所有者/国 SPXS/US

Most Searched